Roanoke, VA

9:04 PM EDT on October 16, 2019 (GMT -0400)
Roanoke Regional-Woodrum

Weather History for KROA - August, 2019

Change the Weather History Date:

Tuesday, August 27, 2019

  Actual Average Record
Temperature  
Mean Temperature 69 °F 74 °F  
Max Temperature 73 °F 85 °F 98 °F (1932)
Min Temperature 65 °F 64 °F 46 °F (1917)
Degree Days  
Heating Degree Days 0 0  
Month to date heating degree days 0 0  
Since 1 June heating degree days 0 11  
Since 1 July heating degree days 0 0  
Cooling Degree Days 4 9  
Month to date cooling degree days 344 287  
Year to date cooling degree days 1327 1010  
Since 1 June cooling degree days 1048 894  
Growing Degree Days 18 (Base 50)    
Moisture  
Dew Point 65 °F    
Average Humidity 88    
Maximum Humidity 97    
Minimum Humidity 79    
Precipitation  
Precipitation 0.16 in 0.12 in 3.83 in (2008)
Month to date precipitation 3.13 3.08  
Year to date precipitation 30.70 27.65  
Snow  
Snow 0.00 in - - ()
Month to date snowfall 0.0  
Since 1 June snowfall T  
Since 1 July snowfall T  
Snow Depth 0.00 in    
Sea Level Pressure  
Sea Level Pressure 30.05 in    
Wind  
Wind Speed 5 mph (SE)    
Max Wind Speed 10 mph    
Max Gust Speed 13 mph    
Visibility 8 miles    
Events Rain    
T = Trace of Precipitation, MM = Missing Value Source: NWS Daily Summary

Daily Weather History Graph

Daily Weather History Graph

Search for Another Location

Airport or City:

Astronomy

Aug. 27, 2019 Rise Set
Actual Time 6:46 AM EDT 7:56 PM EDT
Civil Twilight 6:19 AM EDT 8:23 PM EDT
Nautical Twilight 5:46 AM EDT 8:55 PM EDT
Astronomical Twilight 5:13 AM EDT 9:28 PM EDT
Moon 3:13 AM EDT (8/27) 6:11 PM EDT (8/27)
Length of Visible Light 14h 04m
Length of Day
13h 10m
Waning Crescent, 11% of the Moon is Illuminated
Aug 27
Waning Crescent
Aug 30
New
Sep 5
First Quarter
Sep 14
Full
Sep 21
Last Quarter

Hourly Weather History & Observations

Time (EDT) Temp. Dew Point Humidity Pressure Visibility Wind Dir Wind Speed Gust Speed Precip Events Conditions
12:54 AM 66.9 °F 62.1 °F 84% 30.11 in 10.0 mi SE 6.9 mph - N/A   Overcast
1:22 AM 66.9 °F 62.1 °F 84% 30.13 in 10.0 mi SSE 6.9 mph - N/A   Overcast
1:54 AM 66.0 °F 63.0 °F 90% 30.10 in 6.0 mi South 4.6 mph - 0.00 in Rain Light Rain
2:54 AM 66.0 °F 63.0 °F 90% 30.08 in 10.0 mi SE 6.9 mph - 0.00 in Rain Light Rain
3:13 AM 66.0 °F 63.0 °F 90% 30.09 in 10.0 mi SE 5.8 mph - 0.00 in Rain Light Rain
3:54 AM 66.0 °F 63.0 °F 90% 30.05 in 10.0 mi SE 8.1 mph - 0.00 in   Overcast
4:54 AM 64.9 °F 63.0 °F 93% 30.05 in 10.0 mi SE 5.8 mph - N/A   Overcast
5:54 AM 64.9 °F 63.0 °F 93% 30.05 in 10.0 mi ESE 5.8 mph - N/A   Overcast
6:54 AM 64.9 °F 63.0 °F 93% 30.06 in 10.0 mi SE 4.6 mph - N/A   Overcast
7:16 AM 64.9 °F 64.0 °F 97% 30.09 in 2.0 mi SSE 5.8 mph - 0.01 in Rain Light Rain
7:54 AM 64.9 °F 64.0 °F 97% 30.07 in 2.0 mi Calm Calm - 0.04 in Rain Light Rain
8:54 AM 66.0 °F 64.0 °F 93% 30.07 in 2.0 mi SE 5.8 mph - 0.01 in   Overcast
9:02 AM 66.0 °F 64.9 °F 96% 30.10 in 2.0 mi SE 4.6 mph - N/A   Overcast
9:11 AM 66.0 °F 64.9 °F 96% 30.10 in 2.0 mi SE 4.6 mph - 0.00 in   Light Drizzle
9:54 AM 66.9 °F 64.9 °F 93% 30.07 in 2.0 mi SE 5.8 mph - 0.00 in   Overcast
10:19 AM 66.9 °F 64.9 °F 93% 30.10 in 10.0 mi SE 5.8 mph - N/A   Overcast
10:54 AM 69.1 °F 66.9 °F 93% 30.07 in 10.0 mi ESE 9.2 mph - N/A   Overcast
11:42 AM 71.1 °F 66.0 °F 84% 30.09 in 10.0 mi South 5.8 mph - N/A   Overcast
11:54 AM 72.0 °F 66.0 °F 81% 30.05 in 10.0 mi SE 6.9 mph - N/A   Overcast
12:54 PM 72.0 °F 64.9 °F 78% 30.04 in 10.0 mi South 6.9 mph - N/A   Overcast
1:54 PM 72.0 °F 64.0 °F 76% 30.03 in 10.0 mi SSW 6.9 mph - N/A   Overcast
2:35 PM 70.0 °F 66.9 °F 90% 30.05 in 2.5 mi West 3.5 mph - 0.02 in Rain Light Rain
2:54 PM 71.1 °F 68.0 °F 90% 30.02 in 4.0 mi Calm Calm - 0.03 in Rain Light Rain
3:01 PM 71.1 °F 68.0 °F 90% 30.04 in 6.0 mi Calm Calm - 0.01 in Rain Light Rain
3:54 PM 71.1 °F 66.9 °F 87% 30.00 in 3.0 mi Calm Calm - 0.02 in Rain Light Rain
4:54 PM 70.0 °F 66.9 °F 90% 30.00 in 10.0 mi SSE 3.5 mph - 0.04 in Rain Light Rain
5:54 PM 71.1 °F 68.0 °F 90% 29.99 in 7.0 mi Calm Calm - 0.01 in Rain Light Rain
6:54 PM 71.1 °F 69.1 °F 93% 29.97 in 10.0 mi North 3.5 mph - 0.01 in   Overcast
7:54 PM 71.1 °F 69.1 °F 93% 29.97 in 10.0 mi East 3.5 mph - N/A   Overcast
8:26 PM 71.1 °F 68.0 °F 90% 30.01 in 10.0 mi NE 3.5 mph - N/A   Overcast
8:54 PM 71.1 °F 68.0 °F 90% 29.99 in 10.0 mi ESE 3.5 mph - N/A   Overcast
9:54 PM 71.1 °F 68.0 °F 90% 30.00 in 10.0 mi East 3.5 mph - N/A   Overcast
10:33 PM 70.0 °F 68.0 °F 93% 30.03 in 10.0 mi ESE 3.5 mph - N/A   Overcast
10:54 PM 70.0 °F 68.0 °F 93% 30.00 in 10.0 mi ESE 4.6 mph - N/A   Overcast
11:54 PM 70.0 °F 66.9 °F 90% 29.99 in 10.0 mi ESE 3.5 mph - N/A   Overcast